Temp
-3 -4 -4 -5 -4 -4 -4 -5 -5 -5 -4 -4 -4 -4 -5 -4 -5 -5 -6 -6 -6 -6 -7 -7 -7 -7 -7 -7 -7 -7 -7 -7 -7 -8 -8 -8 -8 -8 -8 -8 -8 -8 -8 -8 -8 -9 -9 -9 -9
-4 -4 -4 -4 -4 -4 -4 -5 -5 -4 -4 -4 -4 -5 -5 -5 -5 -6 -6 -6 -6 -7 -7 -7 -7 -7 -7 -7 -7 -7 -7 -7 -8 -8 -8 -8 -8 -8 -8 -8 -8 -8 -8 -9 -9 -9 -9 -9 -9
-4 -4 -3 -4 -4 -4 -4 -5 -4 -4 -4 -4 -4 -4 -5 -5 -5 -5 -5 -6 -6 -6 -7 -7 -7 -7 -7 -7 -7 -7 -7 -7 -8 -8 -8 -8 -8 -8 -8 -8 -8 -8 -9 -9 -9 -9 -9 -9 -9
-4 -4 -4 -4 -3 -4 -5 -5 -4 -5 -4 -4 -4 -4 -5 -5 -5 -5 -6 -6 -6 -6 -6 -6 -6 -7 -7 -6 -7 -7 -7 -7 -7 -8 -8 -8 -8 -8 -8 -8 -8 -9 -9 -9 -9 -9 -9 -9 -9
-4 -4 -3 -4 -4 -4 -4 -5 -5 -5 -4 -4 -5 -4 -5 -4 -5 -5 -6 -6 -6 -6 -7 -6 -6 -6 -7 -7 -7 -7 -7 -7 -7 -8 -8 -8 -8 -8 -8 -8 -8 -9 -9 -9 -9 -9 -9 -9 -9
-4 -4 -4 -3 -4 -4 -4 -5 -5 -5 -4 -4 -4 -4 -5 -4 -5 -5 -5 -6 -6 -6 -6 -6 -6 -7 -7 -7 -7 -7 -7 -7 -7 -8 -8 -8 -8 -8 -8 -8 -8 -8 -8 -9 -9 -9 -9 -9 -9
-4 -4 -4 -4 -4 -4 -4 -4 -4 -5 -5 -4 -4 -5 -4 -5 -4 -5 -5 -5 -5 -6 -6 -6 -6 -6 -6 -6 -6 -7 -7 -7 -7 -7 -7 -8 -8 -8 -8 -8 -8 -8 -8 -8 -9 -9 -9 -9 -9
-4 -4 -4 -4 -4 -4 -4 -4 -5 -4 -5 -5 -4 -5 -4 -5 -4 -4 -5 -5 -5 -5 -6 -6 -6 -6 -6 -6 -6 -6 -7 -7 -7 -7 -8 -8 -8 -8 -9 -9 -9 -9 -9 -9 -9 -9 -9 -9 -9
-3 -4 -4 -5 -4 -5 -4 -4 -4 -5 -4 -4 -4 -4 -5 -5 -4 -4 -5 -5 -5 -5 -6 -6 -6 -6 -6 -6 -6 -7 -7 -7 -7 -7 -8 -8 -8 -8 -9 -9 -9 -8 -9 -8 -8 -8 -9 -9 -9
-3 -4 -4 -5 -4 -4 -3 -3 -5 -5 -4 -4 -4 -4 -4 -4 -4 -4 -4 -5 -5 -5 -6 -6 -6 -6 -6 -6 -6 -7 -7 -7 -7 -7 -8 -8 -8 -9 -9 -9 -9 -9 -9 -9 -8 -8 -8 -9 -9
-5 -5 -5 -5 -4 -4 -4 -4 -4 -5 -5 -5 -5 -4 -4 -5 -4 -4 -4 -4 -5 -5 -6 -6 -5 -6 -6 -6 -6 -7 -7 -7 -7 -7 -8 -9 -8 -9 -9 -8 -9 -9 -8 -9 -9 -8 -8 -9 -9
-5 -4 -5 -5 -4 -4 -4 -4 -4 -4 -4 -4 -4 -4 -4 -5 -5 -4 -4 -4 -5 -5 -6 -5 -6 -5 -6 -6 -6 -7 -7 -7 -7 -7 -8 -8 -8 -8 -8 -9 -9 -9 -9 -9 -9 -9 -9 -9 -8
-6 -5 -4 -5 -4 -4 -4 -4 -4 -5 -5 -4 -4 -5 -5 -5 -5 -3 -4 -4 -4 -5 -5 -5 -6 -6 -6 -6 -6 -6 -7 -7 -7 -7 -7 -8 -8 -8 -8 -9 -9 -9 -8 -8 -8 -8 -8 -8 -8
-5 -6 -5 -4 -4 -4 -4 -4 -4 -4 -4 -4 -4 -5 -5 -5 -5 -4 -4 -4 -5 -5 -5 -5 -5 -6 -6 -6 -7 -7 -7 -7 -7 -7 -7 -7 -8 -8 -8 -8 -8 -8 -8 -8 -8 -8 -8 -7 -8
-6 -5 -5 -3 -4 -4 -4 -4 -4 -4 -4 -4 -4 -5 -5 -5 -4 -5 -4 -4 -5 -5 -5 -5 -5 -5 -6 -6 -6 -6 -7 -7 -7 -7 -7 -7 -7 -8 -8 -8 -8 -8 -8 -8 -8 -8 -8 -7 -7
-5 -6 -5 -3 -5 -5 -4 -4 -4 -4 -5 -4 -5 -5 -5 -5 -5 -5 -4 -4 -5 -5 -5 -5 -5 -5 -5 -6 -6 -6 -6 -7 -7 -7 -7 -7 -7 -7 -7 -7 -7 -8 -7 -8 -8 -7 -7 -7 -7
-5 -6 -6 -4 -5 -5 -5 -5 -4 -4 -5 -5 -5 -5 -5 -5 -5 -5 -4 -4 -5 -5 -5 -5 -5 -5 -5 -6 -6 -6 -6 -6 -6 -7 -7 -7 -7 -7 -7 -8 -7 -7 -7 -7 -7 -7 -7 -7 -7
-6 -5 -6 -5 -3 -5 -5 -5 -5 -4 -4 -5 -5 -5 -4 -5 -5 -5 -4 -4 -5 -5 -5 -5 -5 -5 -5 -6 -6 -6 -6 -6 -6 -7 -7 -7 -7 -6 -7 -7 -7 -7 -6 -7 -7 -7 -6 -7 -7
-6 -7 -7 -5 -6 -5 -5 -4 -5 -5 -4 -4 -5 -5 -4 -5 -4 -5 -4 -5 -5 -5 -5 -5 -5 -5 -5 -5 -5 -6 -6 -6 -5 -6 -6 -6 -6 -6 -6 -7 -7 -7 -7 -7 -7 -7 -7 -7 -7
-7 -7 -7 -7 -6 -7 -5 -6 -5 -5 -5 -5 -6 -5 -5 -5 -4 -4 -4 -4 -5 -5 -5 -5 -5 -5 -5 -5 -6 -6 -5 -6 -6 -6 -6 -7 -6 -7 -7 -6 -6 -6 -6 -7 -7 -6 -7 -7 -7
-7 -6 -7 -7 -8 -7 -7 -6 -7 -6 -5 -5 -4 -5 -6 -5 -5 -4 -4 -4 -4 -5 -5 -5 -5 -5 -5 -5 -6 -6 -6 -6 -6 -5 -5 -7 -6 -6 -6 -6 -6 -6 -6 -6 -6 -6 -6 -7 -7
-7 -7 -8 -8 -7 -7 -5 -6 -6 -7 -6 -5 -5 -5 -6 -5 -5 -5 -5 -5 -4 -5 -5 -5 -5 -5 -5 -5 -5 -6 -6 -6 -6 -5 -6 -5 -6 -5 -6 -6 -6 -6 -6 -6 -6 -6 -6 -7 -7
-7 -8 -9 -8 -7 -8 -8 -6 -7 -7 -6 -6 -6 -6 -7 -6 -5 -6 -5 -5 -5 -5 -5 -5 -4 -5 -5 -5 -5 -6 -6 -6 -6 -5 -5 -6 -5 -5 -5 -5 -6 -5 -6 -6 -6 -6 -6 -6 -6
-9 -10 -9 -8 -8 -8 -7 -6 -6 -6 -6 -7 -6 -7 -7 -7 -6 -6 -5 -4 -5 -5 -5 -5 -5 -5 -5 -5 -5 -6 -6 -6 -7 -6 -5 -6 -5 -5 -5 -5 -5 -5 -6 -6 -5 -6 -6 -6 -6
-9 -10 -9 -8 -7 -7 -7 -7 -7 -7 -8 -7 -7 -6 -6 -6 -7 -6 -5 -5 -5 -6 -6 -6 -6 -5 -6 -5 -5 -5 -6 -6 -6 -6 -6 -6 -5 -5 -5 -5 -5 -5 -5 -6 -6 -6 -6 -6 -6
-9 -9 -9 -8 -8 -8 -9 -8 -8 -8 -8 -8 -7 -6 -6 -6 -7 -7 -6 -6 -5 -7 -7 -6 -6 -5 -6 -6 -5 -5 -6 -6 -6 -6 -6 -6 -6 -6 -5 -6 -5 -5 -5 -5 -6 -5 -5 -5 -6
-9 -9 -8 -9 -9 -9 -9 -8 -8 -7 -8 -8 -9 -7 -7 -6 -6 -7 -7 -6 -6 -6 -7 -6 -6 -5 -5 -6 -6 -5 -6 -6 -6 -6 -6 -6 -6 -6 -6 -6 -6 -6 -6 -5 -5 -6 -5 -5 -5
-10 -9 -9 -9 -9 -9 -8 -8 -8 -8 -8 -8 -7 -8 -7 -7 -7 -7 -7 -6 -5 -6 -6 -5 -6 -5 -5 -5 -6 -6 -6 -6 -6 -6 -6 -6 -6 -6 -6 -6 -6 -6 -6 -6 -5 -6 -5 -5 -5
-9 -9 -9 -9 -9 -9 -8 -8 -7 -7 -7 -7 -6 -7 -7 -7 -8 -7 -7 -7 -6 -5 -5 -6 -6 -6 -6 -5 -6 -6 -6 -6 -6 -7 -6 -6 -6 -6 -6 -6 -6 -6 -5 -6 -6 -6 -6 -6 -6
-11 -9 -9 -9 -10 -9 -9 -8 -8 -7 -7 -8 -6 -7 -7 -7 -8 -8 -8 -7 -6 -6 -5 -6 -6 -6 -7 -7 -6 -6 -6 -6 -6 -6 -6 -7 -6 -6 -5 -6 -6 -6 -6 -6 -6 -5 -6 -6 -6
Height
5892 5891 5889 5890 5893 5893 5892 5894 5894 5893 5893 5894 5895 5896 5898 5897 5897 5900 5898 5898 5898 5899 5901 5903 5904 5905 5906 5907 5906 5906 5906 5906 5906 5906 5907 5907 5907 5907 5907 5907 5907 5907 5907 5907 5908 5908 5910 5911 5911
5892 5891 5887 5888 5891 5891 5892 5896 5896 5897 5897 5896 5897 5898 5899 5898 5899 5899 5900 5900 5901 5901 5903 5905 5907 5908 5908 5908 5908 5908 5907 5907 5907 5908 5908 5908 5908 5908 5907 5907 5907 5908 5907 5907 5907 5909 5910 5911 5911
5893 5891 5892 5887 5885 5891 5895 5896 5897 5898 5899 5899 5900 5900 5900 5901 5901 5901 5902 5903 5904 5905 5906 5908 5909 5910 5910 5909 5909 5909 5910 5909 5909 5909 5910 5910 5909 5908 5908 5907 5907 5907 5907 5907 5907 5908 5910 5910 5912
5892 5892 5888 5890 5888 5892 5895 5897 5898 5900 5899 5901 5900 5903 5903 5902 5902 5904 5905 5905 5907 5908 5909 5910 5910 5911 5911 5910 5910 5911 5911 5911 5911 5911 5912 5911 5910 5909 5907 5906 5906 5907 5907 5908 5908 5908 5910 5911 5913
5892 5891 5887 5891 5889 5892 5893 5895 5899 5899 5901 5902 5903 5904 5904 5903 5905 5907 5907 5908 5909 5911 5912 5912 5912 5912 5913 5913 5914 5913 5913 5913 5913 5913 5912 5912 5910 5909 5909 5909 5907 5905 5904 5904 5906 5907 5910 5913 5916
5892 5888 5883 5882 5889 5891 5890 5896 5900 5899 5901 5903 5904 5904 5907 5904 5906 5909 5909 5910 5911 5912 5915 5915 5914 5915 5915 5916 5916 5916 5915 5914 5914 5914 5914 5913 5912 5912 5910 5909 5907 5905 5903 5903 5905 5908 5911 5914 5918
5894 5878 5878 5890 5878 5898 5897 5897 5894 5899 5902 5904 5905 5905 5908 5907 5907 5910 5912 5912 5914 5915 5916 5917 5917 5917 5917 5918 5919 5918 5917 5917 5917 5915 5916 5916 5916 5914 5912 5910 5907 5907 5906 5905 5907 5911 5915 5917 5920
5895 5893 5881 5885 5887 5895 5896 5897 5897 5897 5904 5905 5907 5907 5908 5907 5908 5912 5913 5915 5916 5917 5918 5919 5920 5920 5920 5921 5921 5921 5920 5919 5919 5918 5919 5918 5919 5916 5914 5913 5910 5909 5909 5909 5909 5913 5919 5922 5924
5895 5894 5894 5892 5896 5895 5898 5898 5896 5896 5902 5907 5908 5907 5911 5910 5911 5912 5915 5917 5918 5919 5919 5921 5922 5923 5923 5923 5924 5924 5923 5922 5921 5921 5921 5921 5921 5919 5918 5917 5914 5914 5917 5918 5918 5918 5919 5922 5925
5893 5893 5894 5895 5896 5898 5900 5901 5901 5901 5904 5905 5908 5909 5911 5912 5913 5914 5917 5919 5920 5921 5921 5922 5924 5925 5926 5926 5927 5926 5925 5924 5924 5924 5925 5924 5922 5920 5918 5920 5919 5921 5920 5922 5924 5920 5921 5923 5926
5891 5892 5894 5895 5895 5899 5901 5902 5902 5902 5904 5906 5908 5910 5911 5913 5913 5916 5918 5920 5921 5923 5924 5926 5927 5927 5928 5929 5929 5928 5927 5927 5927 5927 5928 5925 5920 5918 5921 5923 5926 5927 5925 5925 5927 5924 5925 5927 5929
5880 5887 5892 5896 5896 5897 5900 5900 5900 5900 5901 5905 5909 5909 5913 5915 5916 5918 5921 5921 5923 5925 5927 5929 5930 5929 5930 5931 5930 5930 5930 5929 5929 5930 5931 5928 5923 5926 5929 5929 5930 5928 5926 5927 5931 5932 5932 5931 5932
5890 5888 5895 5897 5898 5900 5900 5900 5900 5899 5901 5905 5908 5909 5913 5917 5917 5919 5921 5924 5925 5927 5929 5930 5931 5931 5932 5933 5932 5932 5931 5931 5930 5931 5934 5930 5926 5928 5933 5934 5933 5931 5933 5933 5936 5939 5937 5936 5937
5890 5894 5893 5897 5897 5900 5901 5901 5901 5900 5903 5905 5908 5910 5912 5915 5918 5919 5924 5924 5926 5928 5929 5931 5933 5933 5933 5933 5934 5935 5935 5933 5931 5932 5935 5933 5932 5931 5935 5937 5936 5935 5936 5937 5940 5941 5939 5938 5940
5888 5890 5892 5895 5897 5900 5900 5901 5900 5901 5903 5906 5908 5910 5913 5915 5918 5922 5924 5926 5927 5929 5932 5932 5933 5934 5935 5936 5936 5936 5934 5934 5932 5934 5935 5936 5935 5936 5936 5937 5938 5936 5935 5937 5942 5941 5941 5943 5943
5884 5887 5890 5894 5896 5898 5901 5902 5902 5901 5902 5905 5908 5910 5913 5915 5917 5919 5923 5927 5928 5929 5932 5933 5935 5935 5936 5937 5938 5939 5940 5937 5936 5935 5936 5937 5938 5938 5937 5940 5939 5941 5942 5941 5942 5943 5944 5947 5948
5884 5888 5890 5892 5894 5895 5899 5900 5901 5903 5902 5905 5909 5911 5913 5915 5918 5920 5923 5927 5929 5930 5934 5935 5936 5937 5938 5938 5939 5940 5941 5940 5941 5939 5939 5939 5941 5942 5943 5943 5945 5943 5946 5948 5946 5946 5948 5951 5951
5883 5887 5889 5888 5882 5894 5899 5898 5900 5902 5903 5905 5908 5910 5912 5916 5917 5921 5923 5927 5929 5931 5934 5935 5937 5939 5940 5939 5940 5941 5941 5941 5943 5943 5942 5941 5944 5945 5947 5947 5949 5950 5949 5949 5949 5951 5953 5954 5955
5880 5884 5887 5888 5887 5892 5895 5895 5898 5900 5902 5903 5907 5910 5912 5915 5917 5921 5925 5927 5930 5931 5934 5935 5938 5939 5940 5940 5941 5942 5944 5944 5944 5945 5945 5945 5946 5946 5949 5949 5950 5953 5952 5954 5954 5954 5955 5957 5959
5876 5880 5879 5884 5884 5883 5872 5887 5894 5897 5899 5901 5905 5907 5912 5915 5917 5920 5926 5927 5930 5932 5934 5935 5938 5940 5940 5942 5943 5944 5945 5946 5944 5946 5948 5948 5947 5948 5950 5950 5952 5953 5954 5955 5957 5958 5959 5960 5962
5872 5875 5874 5880 5879 5879 5870 5882 5890 5895 5898 5899 5903 5905 5908 5913 5916 5919 5923 5928 5929 5932 5933 5934 5938 5939 5941 5943 5944 5945 5945 5947 5947 5947 5951 5951 5948 5948 5950 5953 5954 5956 5958 5959 5960 5962 5963 5964 5965
5867 5873 5875 5874 5881 5880 5878 5880 5883 5888 5896 5898 5900 5903 5907 5912 5916 5917 5921 5926 5928 5931 5932 5933 5936 5938 5940 5943 5944 5945 5947 5948 5947 5948 5950 5953 5952 5950 5953 5955 5955 5958 5958 5961 5962 5964 5965 5965 5967
5867 5868 5873 5873 5879 5876 5876 5882 5882 5888 5891 5895 5898 5901 5904 5909 5914 5916 5918 5922 5925 5928 5931 5932 5934 5936 5939 5942 5945 5946 5946 5946 5948 5949 5950 5951 5952 5953 5954 5956 5957 5959 5961 5963 5964 5966 5966 5966 5966
5864 5866 5869 5871 5876 5875 5877 5877 5880 5884 5889 5893 5897 5898 5901 5905 5910 5913 5914 5916 5924 5926 5928 5931 5932 5934 5937 5941 5944 5945 5947 5947 5947 5949 5951 5952 5953 5954 5955 5957 5958 5960 5963 5964 5965 5967 5967 5967 5968
5854 5858 5863 5867 5869 5875 5877 5875 5882 5884 5887 5890 5894 5898 5897 5902 5906 5910 5912 5913 5919 5923 5926 5929 5931 5931 5934 5937 5942 5945 5947 5948 5948 5949 5952 5952 5954 5956 5958 5959 5962 5963 5964 5966 5966 5968 5968 5968 5969
5849 5852 5857 5862 5868 5872 5876 5873 5881 5884 5883 5881 5885 5890 5897 5897 5902 5905 5908 5911 5914 5918 5922 5926 5928 5929 5931 5934 5939 5942 5945 5947 5949 5951 5951 5952 5955 5956 5958 5960 5961 5963 5965 5965 5967 5969 5969 5969 5970
5846 5846 5857 5860 5862 5871 5871 5872 5875 5882 5883 5883 5882 5881 5887 5893 5899 5902 5904 5906 5910 5914 5919 5921 5925 5927 5928 5930 5934 5939 5941 5943 5945 5949 5952 5953 5954 5960 5960 5958 5961 5963 5965 5967 5968 5969 5970 5970 5972
5834 5843 5850 5853 5860 5864 5864 5866 5867 5873 5878 5881 5882 5882 5883 5889 5894 5898 5901 5905 5906 5911 5915 5917 5921 5924 5926 5928 5929 5933 5938 5940 5941 5946 5952 5952 5952 5957 5959 5959 5961 5962 5964 5966 5967 5968 5969 5971 5972
5833 5839 5844 5848 5853 5855 5857 5857 5862 5862 5868 5874 5875 5879 5886 5889 5894 5894 5897 5899 5898 5906 5911 5914 5919 5920 5922 5924 5925 5929 5933 5936 5939 5942 5948 5952 5953 5952 5955 5958 5961 5962 5963 5964 5966 5966 5968 5969 5971
5827 5835 5842 5845 5850 5848 5849 5852 5853 5855 5861 5867 5871 5876 5880 5886 5887 5890 5892 5894 5893 5900 5904 5898 5913 5913 5914 5919 5922 5925 5929 5932 5934 5937 5942 5947 5951 5954 5953 5955 5959 5962 5962 5963 5964 5965 5965 5967 5968
Wind_Speed
4 6 8 5 16 13 14 15 11 7 9 11 12 12 10 10 11 11 11 11 11 14 13 14 13 13 11 9 7 6 6 5 5 4 4 5 5 5 6 6 6 6 6 7 8 8 9 8 10
3 7 5 13 17 12 15 15 12 8 8 8 11 11 13 13 12 11 12 10 10 13 13 13 12 10 10 7 7 7 7 7 7 7 7 6 7 8 8 7 6 6 6 6 7 8 10 9 10
3 9 6 9 10 14 17 13 9 9 7 7 11 10 13 13 12 12 12 11 11 13 14 13 11 9 9 9 11 11 9 10 10 10 10 10 10 10 10 8 7 7 6 5 5 7 12 11 12
3 4 7 13 23 18 13 11 9 10 7 8 9 10 12 14 14 13 12 14 13 13 13 13 11 10 12 13 12 11 12 12 12 12 12 11 11 11 9 9 8 7 6 4 4 6 11 14 12
0 4 11 16 17 15 16 16 11 9 7 6 8 11 13 14 16 12 14 15 15 14 12 13 13 12 13 13 13 13 14 13 13 14 12 11 10 11 10 9 9 6 4 2 4 8 13 18 14
3 9 20 23 17 10 20 11 5 11 6 3 7 10 12 13 15 14 14 15 14 15 13 14 15 13 14 15 15 14 13 12 12 13 12 11 11 13 12 13 13 10 8 5 9 15 18 17 16
3 10 1 7 26 16 14 12 13 10 10 4 5 8 10 13 16 12 14 14 15 14 14 14 14 15 15 14 13 12 13 12 13 12 12 12 13 14 14 16 18 19 13 15 16 23 24 19 16
4 3 3 15 8 6 7 3 7 12 11 7 5 7 8 12 14 13 13 14 13 14 15 14 14 14 13 13 12 12 12 13 12 11 13 12 14 15 14 16 21 25 26 29 31 27 21 16 14
3 3 2 6 4 15 12 5 3 7 6 7 7 11 7 10 11 11 12 12 13 13 14 14 14 13 14 14 14 12 12 13 12 11 13 13 14 16 15 18 18 21 22 22 22 22 20 17 13
4 6 6 5 7 8 6 11 4 12 10 10 4 5 8 7 11 11 9 13 12 13 12 13 14 12 14 14 15 13 12 13 13 11 12 14 14 17 16 18 21 21 15 14 17 18 16 14 13
14 12 14 8 6 7 6 7 6 7 19 15 10 5 9 5 9 9 9 10 11 12 11 11 12 12 12 13 14 14 12 11 12 11 14 14 9 16 18 19 22 23 28 24 20 10 18 17 16
1 15 10 7 3 2 4 6 3 1 19 14 8 5 8 7 8 8 12 9 11 9 10 10 10 10 10 10 12 11 11 11 11 12 15 11 8 16 16 21 24 29 19 22 21 18 18 20 21
10 4 1 7 6 2 2 6 5 3 9 12 9 6 6 9 7 7 8 10 9 9 8 9 7 9 8 10 14 14 12 8 11 14 13 11 11 13 10 24 29 16 24 24 23 19 21 22 23
11 11 12 8 5 2 1 5 3 4 10 10 10 7 6 11 11 6 7 9 11 8 5 6 5 6 7 9 13 12 11 11 10 12 13 12 12 11 19 24 23 22 22 25 21 19 19 23 21
21 9 15 11 7 5 3 3 4 5 14 14 12 9 7 12 11 10 8 9 8 9 8 6 4 5 6 7 10 13 15 10 11 12 12 11 11 14 15 19 21 22 19 19 23 20 21 20 22
11 25 16 13 8 4 4 2 2 5 13 15 12 9 8 12 9 8 8 11 8 6 5 4 4 3 5 6 11 12 13 11 11 12 11 11 12 14 14 16 19 21 19 19 22 22 24 21 23
26 16 13 12 11 10 9 6 3 3 15 20 16 13 10 13 13 8 7 8 10 8 6 5 2 2 5 5 8 11 11 11 11 12 9 9 10 13 13 15 14 19 17 19 22 22 23 22 24
17 16 17 14 21 17 12 10 5 3 9 19 19 15 12 12 15 14 11 9 9 9 9 7 4 3 4 6 6 10 10 9 9 11 9 8 9 13 12 12 14 15 18 18 20 20 20 20 20
19 14 16 27 30 21 13 13 11 7 5 21 22 14 14 13 14 15 13 11 9 10 11 9 6 4 3 3 6 7 9 8 9 10 10 8 9 9 10 12 14 10 15 16 18 19 18 18 17
25 20 24 23 27 29 27 21 17 11 10 13 18 19 14 13 12 12 14 14 13 11 11 12 9 7 4 5 4 6 9 7 6 8 9 11 11 11 11 10 13 11 13 14 13 16 17 17 13
30 30 30 24 30 29 18 15 20 17 14 17 19 26 24 17 14 11 14 15 15 13 12 14 12 10 7 4 2 4 4 7 5 4 8 11 10 11 9 12 10 11 12 12 14 11 13 13 10
33 32 27 29 23 27 27 16 25 22 15 14 16 11 21 19 13 12 12 15 17 15 13 14 13 13 10 7 4 3 8 4 4 1 4 6 11 12 10 8 9 9 12 12 12 11 12 12 10
33 29 20 24 18 20 22 23 12 10 17 17 14 15 20 17 15 16 14 15 19 17 15 14 15 14 12 10 6 5 5 7 4 3 5 3 6 9 11 10 8 9 10 9 10 9 9 10 11
34 22 26 28 23 32 18 22 3 18 21 21 24 20 20 19 19 20 18 16 16 17 16 15 16 14 13 12 10 6 5 9 9 6 4 5 2 5 8 8 7 6 6 8 6 7 6 6 9
46 35 31 33 28 27 18 20 21 19 18 23 24 27 22 21 21 23 19 17 16 15 16 16 16 16 14 15 12 10 7 7 8 8 7 4 3 4 7 6 6 6 4 4 5 4 6 5 5
49 38 29 23 18 14 11 25 27 23 23 27 28 27 22 19 20 20 20 20 20 20 19 18 19 19 16 17 16 13 10 10 10 12 11 7 4 5 7 5 4 4 3 4 2 2 3 4 4
47 48 39 19 16 19 20 26 28 19 25 26 28 14 20 15 21 23 20 24 20 18 20 22 23 23 21 20 19 17 14 12 10 9 10 10 10 4 3 4 4 4 1 3 4 3 2 2 2
50 52 41 35 23 24 25 29 33 29 25 25 25 24 7 13 18 29 26 26 22 21 22 25 24 25 24 23 21 20 17 15 13 11 12 12 12 9 5 4 4 4 4 1 2 1 2 2 1
44 49 48 38 35 31 29 28 30 34 32 28 26 25 21 18 21 25 21 29 31 24 20 26 24 24 24 25 24 23 22 19 16 13 11 13 14 13 10 7 7 5 5 5 4 3 2 3 3
41 42 48 43 33 35 31 29 27 30 23 21 25 27 24 24 21 21 19 20 26 29 34 37 24 29 32 27 24 23 24 22 20 17 14 12 12 15 14 12 12 10 8 6 6 5 5 5 5
Wind_Direction
355 357 334 107 128 132 125 143 133 141 110 66 61 74 88 90 95 101 104 109 111 113 117 115 111 109 105 99 91 79 75 75 78 74 68 70 72 74 70 69 75 76 73 68 70 66 77 93 98
31 15 14 153 134 154 134 147 140 136 80 63 71 89 78 85 95 101 100 99 110 112 115 114 113 107 99 87 72 68 67 71 72 72 77 76 77 83 87 80 77 81 84 83 75 81 82 110 100
20 39 59 137 107 138 146 154 139 101 103 60 76 84 86 92 85 93 99 101 98 107 115 119 116 104 89 81 68 64 67 73 77 78 80 81 82 76 71 70 71 72 73 72 81 93 97 118 106
18 26 198 191 120 138 124 144 124 120 88 64 68 98 95 100 86 99 107 105 98 104 112 112 99 88 77 70 70 75 78 77 81 83 85 86 81 78 73 69 64 67 69 65 74 124 113 120 110
159 314 292 182 135 150 161 164 139 142 133 80 84 105 106 104 98 111 111 103 106 105 106 101 91 78 73 68 71 68 71 76 80 83 84 83 83 79 69 60 48 51 72 130 134 136 119 126 113
152 326 91 129 144 169 177 149 174 144 142 93 85 107 113 111 110 104 114 113 112 106 99 92 87 80 71 69 73 72 73 79 80 79 80 81 82 73 63 52 50 58 84 99 137 137 132 132 117
136 330 80 128 147 147 173 111 139 161 156 153 99 124 121 127 117 118 115 107 104 100 99 92 87 83 75 75 77 76 71 75 73 72 74 72 68 70 69 64 78 86 93 98 120 127 127 119 122
189 316 24 118 174 102 192 141 269 215 171 149 115 132 130 121 126 127 122 111 110 105 103 98 93 91 82 74 75 73 75 77 82 79 72 70 70 68 76 72 90 97 101 108 112 114 112 116 110
186 278 74 81 297 37 48 53 126 123 160 152 128 134 145 134 138 120 124 120 113 108 107 107 104 92 79 73 71 73 79 83 82 82 76 70 66 66 70 72 104 107 100 102 106 110 113 113 104
160 206 133 95 72 60 39 64 82 219 206 164 126 134 139 151 135 135 131 117 119 117 118 118 111 99 78 74 67 66 70 76 74 72 80 71 72 73 76 81 103 94 104 101 112 111 102 105 108
228 186 133 126 100 82 78 37 72 192 203 169 164 139 140 186 135 143 126 133 126 126 125 123 112 95 85 76 66 56 58 73 85 80 77 76 100 102 94 90 86 90 86 104 95 81 101 108 110
146 121 135 149 111 60 25 3 357 304 177 163 160 141 158 162 161 154 135 147 135 124 127 121 120 102 81 71 64 59 50 65 84 91 81 87 100 76 88 86 79 85 105 99 95 103 104 106 104
234 31 141 154 148 171 28 348 324 279 227 177 161 165 176 164 179 157 161 145 134 129 144 128 143 104 76 63 62 61 56 56 86 98 96 95 76 91 81 64 87 91 101 92 96 102 102 104 107
168 218 194 192 179 183 111 353 1 124 149 169 170 183 181 187 172 168 181 167 139 147 145 150 139 105 83 59 61 62 71 70 66 89 94 91 89 86 86 84 88 89 84 90 100 98 95 94 94
194 195 227 199 179 196 131 37 73 294 187 189 173 187 189 195 174 171 191 181 161 155 164 173 166 126 104 85 64 66 65 71 82 91 94 91 83 84 85 89 92 80 82 87 89 89 87 90 95
188 211 210 225 156 191 159 171 327 302 210 199 179 190 188 197 182 156 188 190 175 172 159 163 195 127 87 72 64 60 74 74 79 84 94 88 80 75 68 84 88 89 85 83 88 93 91 90 94
216 210 227 225 205 200 186 208 266 1 199 201 187 203 204 192 180 171 195 199 181 187 204 172 168 77 85 79 78 69 71 74 76 82 91 89 83 81 83 92 101 94 93 92 93 90 94 98 98
214 206 217 228 207 230 222 206 213 253 200 202 203 205 213 197 199 175 190 202 202 191 209 208 182 125 87 98 84 80 76 82 84 97 86 88 98 91 88 97 99 111 101 96 97 101 100 97 97
195 197 228 219 243 235 195 230 227 208 190 205 204 215 224 202 213 197 187 199 202 202 210 217 195 165 129 108 92 76 74 75 82 93 103 94 95 100 107 102 96 101 104 100 103 103 102 98 102
199 179 238 248 243 258 206 212 219 213 211 190 208 216 229 221 224 214 200 199 199 209 205 213 201 181 176 85 96 109 96 91 71 86 102 111 123 115 92 94 98 102 101 105 110 112 112 110 112
200 193 221 239 250 242 280 272 216 217 205 200 211 230 229 213 212 220 213 203 210 206 206 217 209 200 202 141 85 105 144 98 97 74 101 118 114 106 106 108 106 105 113 113 108 110 106 107 105
197 200 212 233 239 265 258 266 208 185 196 198 196 208 219 219 218 226 219 206 210 209 212 216 212 216 208 191 164 119 135 103 107 64 82 110 119 118 119 101 115 116 110 116 123 123 115 109 97
191 204 217 240 253 270 258 251 253 215 205 215 199 200 206 220 214 224 225 209 214 205 212 217 216 218 218 205 196 179 141 116 134 186 113 68 113 119 122 127 123 110 113 116 122 122 117 115 110
174 188 224 232 247 241 219 232 234 242 200 239 203 205 209 217 223 223 229 220 198 212 211 217 222 211 224 218 206 202 179 171 156 181 160 149 124 114 122 114 118 114 101 129 110 111 114 99 100
184 189 206 216 231 231 221 243 253 254 268 250 235 230 203 213 227 218 233 228 190 206 216 217 222 211 211 222 211 213 190 202 188 165 201 168 179 136 120 123 136 147 134 117 120 127 119 99 90
185 190 193 204 219 201 213 243 252 261 264 267 262 205 209 202 216 212 223 221 208 200 215 213 219 217 209 216 210 211 202 208 210 182 181 174 201 204 146 126 119 113 137 136 145 137 116 112 111
187 197 196 201 212 240 237 247 252 263 258 275 297 210 195 209 219 204 212 218 212 185 212 214 218 219 212 216 213 205 207 218 217 205 189 184 199 215 182 143 140 125 165 155 159 131 111 104 124
195 198 188 201 195 214 227 240 250 259 261 261 273 275 290 244 258 219 212 222 210 208 203 222 216 223 220 215 215 212 208 213 216 211 193 191 193 180 206 176 191 157 147 186 170 138 163 140 158
209 202 198 196 197 219 220 237 243 245 251 247 256 264 271 271 253 205 221 224 222 224 225 214 221 222 226 227 217 218 206 213 219 211 203 198 198 195 199 196 202 181 170 158 188 182 194 227 197
208 203 200 199 200 212 228 237 237 237 231 226 253 260 268 259 253 255 256 244 251 231 223 214 216 255 231 223 222 220 218 213 220 217 204 197 209 203 201 203 199 207 181 183 204 192 186 194 225